Bolton Field, OH

11:54 AM EDT on April 19, 2018 (GMT -0400)
Bolton

Weather History for KTZR - October, 2012

Change the Weather History Date:

Friday, October 19, 2012

  Actual Average Record
Temperature  
Mean Temperature 51 °F -  
Max Temperature 57 °F 62 °F 77 °F (2016)
Min Temperature 45 °F 43 °F 28 °F (2008)
Degree Days  
Heating Degree Days 14    
Growing Degree Days 1 (Base 50)    
Moisture  
Dew Point 44 °F    
Average Humidity 86    
Maximum Humidity 100    
Minimum Humidity 48    
Precipitation  
Precipitation 0.00 in - - ()
Sea Level Pressure  
Sea Level Pressure 29.66 in    
Wind  
Wind Speed 9 mph (South)    
Max Wind Speed 13 mph    
Max Gust Speed 22 mph    
Visibility 10 miles    
Events Rain    
Averages and records for this station are not official NWS values.
T = Trace of Precipitation, MM = Missing Value Source: NWS Daily Summary

Daily Weather History Graph

Daily Weather History Graph

Search for Another Location

Airport or City:

Astronomy

Oct. 19, 2012 Rise Set
Actual Time 7:47 AM EDT 6:46 PM EDT
Civil Twilight 7:20 AM EDT 7:13 PM EDT
Nautical Twilight 6:48 AM EDT 7:45 PM EDT
Astronomical Twilight 6:17 AM EDT 8:16 PM EDT
Moon 12:29 PM EDT 10:23 PM EDT
Length of Visible Light 11h 53m
Length of Day
10h 58m
Waxing Crescent, 23% of the Moon is Illuminated
Oct 19
Waxing Crescent
Oct 21
First Quarter
Oct 29
Full
Nov 6
Last Quarter
Nov 13
New

Hourly Weather History & Observations

Time (EDT) Temp. Windchill Dew Point Humidity Pressure Visibility Wind Dir Wind Speed Gust Speed Precip Events Conditions
2:15 AM 48.6 °F - 43.7 °F 83% 29.68 in 10.0 mi SSE 8.1 mph - N/A   Overcast
2:35 AM 48.7 °F - 44.2 °F 84% 29.68 in 10.0 mi SSE 9.2 mph - N/A   Overcast
2:55 AM 48.7 °F - 44.6 °F 86% 29.67 in 10.0 mi SSE 10.4 mph 16.1 mph N/A   Overcast
3:15 AM 48.7 °F - 44.6 °F 86% 29.67 in 10.0 mi SSE 10.4 mph - N/A   Overcast
3:35 AM 48.6 °F - 44.8 °F 87% 29.67 in 10.0 mi SSE 9.2 mph 16.1 mph N/A   Overcast
3:55 AM 48.7 °F - 45.0 °F 87% 29.66 in 10.0 mi SSE 9.2 mph - N/A   Overcast
4:15 AM 49.1 °F - 45.0 °F 86% 29.66 in 10.0 mi SSE 8.1 mph - N/A   Overcast
4:35 AM 49.1 °F - 45.1 °F 86% 29.65 in 10.0 mi SSE 8.1 mph - N/A   Overcast
4:55 AM 48.6 °F - 45.1 °F 88% 29.65 in 10.0 mi SSE 10.4 mph - N/A   Mostly Cloudy
5:15 AM 48.2 °F - 45.0 °F 89% 29.64 in 10.0 mi SSE 9.2 mph - N/A   Scattered Clouds
5:35 AM 47.7 °F - 45.0 °F 90% 29.64 in 10.0 mi SSE 8.1 mph - N/A   Clear
5:55 AM 47.5 °F - 45.1 °F 92% 29.64 in 10.0 mi SSE 8.1 mph - N/A   Clear
6:15 AM 47.3 °F - 45.0 °F 92% 29.64 in 10.0 mi SSE 6.9 mph - N/A   Clear
6:35 AM 47.3 °F - 45.5 °F 93% 29.64 in 10.0 mi SSE 9.2 mph - N/A   Clear
6:55 AM 47.5 °F - 45.5 °F 93% 29.64 in 10.0 mi SSE 6.9 mph - N/A   Clear
7:15 AM 47.5 °F - 45.0 °F 91% 29.64 in 10.0 mi SSE 6.9 mph - N/A   Clear
7:35 AM 47.5 °F - 45.0 °F 91% 29.64 in 10.0 mi SSE 8.1 mph - N/A   Clear
7:50 AM 48.2 °F - 44.6 °F 87% 29.64 in 10.0 mi SSE 10.4 mph - N/A   Clear
7:55 AM 47.8 °F - 44.8 °F 89% 29.64 in 10.0 mi SSE 9.2 mph - N/A   Clear
8:15 AM 48.2 °F - 44.6 °F 87% 29.64 in 10.0 mi SSE 8.1 mph - N/A   Mostly Cloudy
8:50 AM 48.2 °F - - N/A% 29.65 in 10.0 mi SSE 8.1 mph - N/A   Mostly Cloudy
9:50 AM 48.2 °F - 44.6 °F 87% 29.64 in 10.0 mi SSE 8.1 mph - N/A   Overcast
10:50 AM 51.8 °F - 42.8 °F 71% 29.63 in 10.0 mi SSE 11.5 mph - N/A   Overcast
11:55 AM 53.6 °F - 41.0 °F 62% 29.62 in 10.0 mi SSE 8.1 mph - N/A   Overcast
12:50 PM 55.4 °F - 39.2 °F 54% 29.61 in 10.0 mi SSE 9.2 mph - N/A   Overcast
1:47 PM 57.2 °F - 37.4 °F 48% 29.59 in 10.0 mi South 8.1 mph - N/A   Overcast
3:47 PM 53.6 °F - 39.2 °F 58% 29.60 in 7.0 mi SSW 11.5 mph 21.9 mph N/A Rain Light Rain
4:50 PM 48.2 °F - 46.4 °F 93% 29.64 in 5.0 mi SW 10.4 mph - N/A Rain Light Rain
5:47 PM 46.4 °F 44.3 °F 46.4 °F 100% 29.65 in 7.0 mi SSW 4.6 mph - N/A Rain Light Rain
6:47 PM 46.4 °F 42.9 °F 44.6 °F 93% 29.66 in 7.0 mi SSW 6.9 mph 16.1 mph N/A Rain Light Rain
9:15 PM 46.2 °F 40.5 °F 44.2 °F 93% 29.69 in 10.0 mi SSW 12.7 mph 17.3 mph N/A   Overcast
9:35 PM 46.0 °F 41.0 °F 44.1 °F 93% 29.69 in 10.0 mi SSW 10.4 mph 17.3 mph N/A   Overcast
9:55 PM 45.9 °F 41.2 °F 44.1 °F 93% 29.69 in 10.0 mi SSW 9.2 mph - N/A   Overcast
10:15 PM 46.0 °F 41.9 °F 43.9 °F 92% 29.69 in 10.0 mi SSW 8.1 mph - N/A   Overcast
10:35 PM 45.9 °F 40.4 °F 44.1 °F 93% 29.70 in 10.0 mi SSW 11.5 mph 17.3 mph N/A   Overcast
10:55 PM 46.0 °F 41.4 °F 43.9 °F 92% 29.69 in 10.0 mi SSW 9.2 mph - N/A   Overcast
11:15 PM 45.9 °F 41.7 °F 44.6 °F 95% 29.69 in 10.0 mi SSW 8.1 mph - N/A   Overcast
11:35 PM 46.0 °F 41.9 °F 44.6 °F 95% 29.70 in 10.0 mi South 8.1 mph - N/A   Overcast
11:55 PM 46.4 °F 41.5 °F 44.6 °F 93% 29.70 in 10.0 mi SSW 10.4 mph - N/A   Overcast